Weather History for Richlands, VA

Change the Weather History Date:

Thursday, March 21, 2013

  Actual Average (KBLF) Record (KBLF)
Temperature  
Mean Temperature 22 °F 47 °F  
Max Temperature 27 °F 56 °F 77 °F (2012)
Min Temperature 17 °F 38 °F 8 °F (1965)
Degree Days  
Heating Degree Days 43 18  
Month to date heating degree days 450  
Since 1 July heating degree days 3943  
Cooling Degree Days 0 0  
Month to date cooling degree days 0  
Year to date cooling degree days 0  
Moisture  
Dew Point 12 °F    
Average Humidity 68    
Maximum Humidity 88    
Minimum Humidity 56    
Precipitation  
Precipitation 0.00 in 0.11 in 0.79 in (1974)
Month to date precipitation 2.36  
Year to date precipitation 8.02  
Snow  
Snow 0.00 in - - ()
Month to date snowfall  
Since 1 July snowfall  
Snow Depth -    
Sea Level Pressure  
Sea Level Pressure 29.82 in    
Wind  
Wind Speed 9 mph (NW)    
Max Wind Speed 14 mph    
Max Gust Speed 21 mph    
Visibility 9 miles    
Events Snow    
T = Trace of Precipitation, MM = Missing Value Source: NWS Daily Summary

Daily Weather History Graph

Daily Weather History Graph

Search for Another Location

Airport:

Trip Planner

Search our weather history database for the weather conditions in past years. The results will help you decide how hot, cold, wet, or windy it might be!

Date:

Astronomy

Mar. 21, 2013 Rise Set
Actual Time 7:28 AM EDT 7:40 PM EDT
Civil Twilight 7:02 AM EDT 8:06 PM EDT
Nautical Twilight 6:32 AM EDT 8:36 PM EDT
Astronomical Twilight 6:01 AM EDT 9:07 PM EDT
Moon 2:15 PM EDT (3/21) 3:42 AM EDT (3/21)
Length of Visible Light 13h 03m
Length of Day
12h 11m
Waxing Gibbous, 68% of the Moon is Illuminated
Mar 21
Waxing Gibbous
Mar 27
Full
Apr 3
Last Quarter
Apr 10
New
Apr 18
First Quarter

Hourly Weather History & Observations

Time (EDT) Temp. Windchill Dew Point Humidity Pressure Visibility Wind Dir Wind Speed Gust Speed Precip Events Conditions
12:15 AM 27.3 °F 18.4 °F 24.1 °F 88% 29.82 in 10.0 mi WNW 9.2 mph - N/A Snow Light Snow
12:55 AM 27.3 °F 20.9 °F 22.3 °F 81% 29.82 in 10.0 mi NW 5.8 mph - N/A   Mostly Cloudy
1:15 AM 27.3 °F 19.9 °F 20.5 °F 75% 29.82 in 10.0 mi NW 6.9 mph 16.1 mph N/A Snow Light Snow
1:35 AM 26.6 °F 16.2 °F 18.3 °F 71% 29.81 in 2.5 mi NW 11.5 mph 17.3 mph N/A Snow Light Snow
1:55 AM 25.9 °F 17.4 °F 17.1 °F 69% 29.80 in 10.0 mi NW 8.1 mph - N/A   Overcast
2:15 AM 24.8 °F 15.3 °F 15.8 °F 69% 29.80 in 10.0 mi NNW 9.2 mph 17.3 mph N/A Snow Light Snow
2:35 AM 24.1 °F 14.4 °F 15.3 °F 69% 29.80 in 10.0 mi WNW 9.2 mph 16.1 mph N/A   Mostly Cloudy
2:55 AM 23.9 °F 15.8 °F 14.7 °F 68% 29.80 in 10.0 mi NW 6.9 mph - N/A   Overcast
3:15 AM 23.0 °F 14.7 °F 13.3 °F 66% 29.80 in 10.0 mi NW 6.9 mph - N/A   Overcast
3:35 AM 22.5 °F 11.7 °F 12.4 °F 65% 29.79 in 10.0 mi NW 10.4 mph - N/A   Overcast
3:55 AM 22.1 °F 10.6 °F 12.2 °F 66% 29.79 in 10.0 mi WNW 11.5 mph 18.4 mph N/A   Overcast
4:35 AM 21.2 °F 10.1 °F 10.9 °F 65% 29.78 in 10.0 mi NW 10.4 mph 18.4 mph N/A   Mostly Cloudy
4:55 AM 20.3 °F 10.6 °F 10.8 °F 67% 29.77 in 10.0 mi NW 8.1 mph 19.6 mph N/A   Mostly Cloudy
5:15 AM 20.1 °F 6.9 °F 9.9 °F 64% 29.76 in 10.0 mi NW 13.8 mph - N/A   Overcast
5:35 AM 19.8 °F 9.9 °F 8.6 °F 62% 29.77 in 10.0 mi WNW 8.1 mph 16.1 mph N/A   Mostly Cloudy
5:55 AM 19.6 °F 8.9 °F 10.0 °F 66% 29.77 in 10.0 mi NW 9.2 mph 16.1 mph N/A   Mostly Cloudy
6:15 AM 19.2 °F 9.3 °F 11.3 °F 71% 29.77 in 7.0 mi NW 8.1 mph 17.3 mph N/A   Overcast
6:35 AM 18.9 °F 8.8 °F 12.0 °F 75% 29.78 in 10.0 mi NW 8.1 mph - N/A   Overcast
6:55 AM 18.5 °F 7.5 °F 11.3 °F 73% 29.79 in 10.0 mi NW 9.2 mph - N/A   Overcast
7:15 AM 18.3 °F 7.3 °F 11.3 °F 74% 29.79 in 10.0 mi NW 9.2 mph - N/A   Overcast
7:35 AM 17.6 °F 7.3 °F 10.6 °F 74% 29.79 in 10.0 mi WNW 8.1 mph - N/A   Overcast
7:55 AM 17.4 °F 7.1 °F 10.8 °F 75% 29.79 in 10.0 mi NW 8.1 mph - N/A   Mostly Cloudy
8:15 AM 17.2 °F 7.8 °F 10.9 °F 76% 29.79 in 10.0 mi WNW 6.9 mph - N/A   Mostly Cloudy
8:35 AM 17.6 °F 7.3 °F 10.2 °F 73% 29.79 in 10.0 mi NW 8.1 mph - N/A   Scattered Clouds
8:55 AM 18.5 °F 8.4 °F 9.5 °F 68% 29.79 in 10.0 mi NW 8.1 mph - N/A   Mostly Cloudy
9:15 AM 18.0 °F 7.7 °F 9.0 °F 68% 29.80 in 10.0 mi NW 8.1 mph - N/A   Overcast
9:35 AM 18.9 °F 8.8 °F 7.7 °F 62% 29.80 in 10.0 mi NNW 8.1 mph - N/A   Overcast
9:55 AM 19.2 °F 9.3 °F 5.9 °F 56% 29.80 in 10.0 mi NW 8.1 mph 16.1 mph N/A   Overcast
10:15 AM 19.9 °F 10.1 °F 6.6 °F 56% 29.80 in 10.0 mi NNW 8.1 mph - N/A   Overcast
10:35 AM 19.4 °F 7.2 °F 7.3 °F 60% 29.81 in 10.0 mi West 11.5 mph 16.1 mph N/A   Overcast
10:55 AM 19.2 °F 11.3 °F 7.3 °F 60% 29.81 in 10.0 mi WNW 5.8 mph 16.1 mph N/A   Overcast
11:15 AM 20.3 °F 10.6 °F 9.0 °F 62% 29.81 in 10.0 mi WNW 8.1 mph - N/A   Overcast
11:35 AM 20.1 °F 9.5 °F 9.5 °F 63% 29.82 in 7.0 mi WNW 9.2 mph 18.4 mph N/A Snow Light Snow
11:55 AM 20.3 °F 9.8 °F 7.7 °F 58% 29.81 in 10.0 mi WNW 9.2 mph - N/A   Overcast
12:15 PM 21.4 °F 11.1 °F 10.4 °F 63% 29.81 in 10.0 mi NW 9.2 mph - N/A   Overcast
12:55 PM 21.2 °F 13.6 °F 10.9 °F 65% 29.82 in 10.0 mi NW 5.8 mph - N/A   Overcast
1:15 PM 21.0 °F 9.3 °F 11.7 °F 67% 29.82 in 7.0 mi NNW 11.5 mph 20.7 mph N/A Snow Light Snow
1:55 PM 21.0 °F 9.9 °F 13.6 °F 73% 29.82 in 1.8 mi WNW 10.4 mph 16.1 mph N/A Snow Light Snow
2:15 PM 22.1 °F 15.9 °F 12.7 °F 67% 29.81 in 10.0 mi NNW 4.6 mph 9.2 mph N/A   Overcast
2:35 PM 21.4 °F 12.8 °F 14.2 °F 74% 29.82 in 3.0 mi NW 6.9 mph - N/A Snow Light Snow
2:55 PM 23.2 °F 13.3 °F 13.3 °F 66% 29.82 in 10.0 mi WNW 9.2 mph - N/A   Overcast
3:15 PM 22.5 °F 13.2 °F 14.2 °F 71% 29.82 in 3.0 mi WNW 8.1 mph - N/A Snow Light Snow
3:35 PM 23.7 °F 12.1 °F 16.2 °F 73% 29.82 in 7.0 mi NW 12.7 mph 17.3 mph N/A Snow Light Snow
3:55 PM 23.7 °F 14.0 °F 12.7 °F 63% 29.83 in 10.0 mi NW 9.2 mph 16.1 mph N/A Snow Light Snow
4:15 PM 22.6 °F 10.7 °F 12.4 °F 65% 29.83 in 7.0 mi NW 12.7 mph 19.6 mph N/A   Overcast
4:35 PM 23.7 °F 14.0 °F 11.5 °F 60% 29.83 in 10.0 mi WNW 9.2 mph 17.3 mph N/A   Overcast
4:55 PM 23.5 °F 11.3 °F 10.8 °F 58% 29.84 in 10.0 mi WNW 13.8 mph 19.6 mph N/A   Overcast
5:15 PM 24.1 °F 12.5 °F 11.1 °F 58% 29.84 in 10.0 mi WNW 12.7 mph 17.3 mph N/A   Mostly Cloudy
5:55 PM 22.8 °F 12.2 °F 11.3 °F 61% 29.85 in 10.0 mi WNW 10.4 mph 16.1 mph N/A   Mostly Cloudy
6:15 PM 23.4 °F 11.1 °F 13.3 °F 65% 29.85 in 10.0 mi NNW 13.8 mph 20.7 mph N/A   Overcast
6:35 PM 22.5 °F 13.2 °F 12.7 °F 66% 29.85 in 10.0 mi WNW 8.1 mph - N/A   Overcast
6:55 PM 22.6 °F 12.6 °F 11.5 °F 62% 29.86 in 10.0 mi NW 9.2 mph 16.1 mph N/A   Overcast
7:15 PM 22.1 °F 12.0 °F 12.7 °F 67% 29.86 in 10.0 mi NW 9.2 mph - N/A   Overcast
7:35 PM 21.2 °F 10.9 °F 14.5 °F 75% 29.87 in 10.0 mi NW 9.2 mph - N/A Snow Light Snow
7:55 PM 21.4 °F 12.8 °F 11.1 °F 65% 29.88 in 10.0 mi NW 6.9 mph - N/A   Overcast
8:15 PM 21.2 °F 11.7 °F 10.4 °F 63% 29.88 in 10.0 mi NW 8.1 mph - N/A   Overcast
8:35 PM 21.0 °F 10.6 °F 10.4 °F 64% 29.88 in 10.0 mi NNW 9.2 mph - N/A   Overcast
8:55 PM 20.8 °F 12.1 °F 10.9 °F 66% 29.89 in 10.0 mi NNW 6.9 mph - N/A   Overcast
9:15 PM 19.9 °F 12.1 °F 12.7 °F 74% 29.89 in 10.0 mi NNW 5.8 mph - N/A   Scattered Clouds
9:55 PM 19.4 °F 10.4 °F 13.1 °F 76% 29.91 in 10.0 mi NNW 6.9 mph - N/A   Clear
10:15 PM 19.4 °F 10.4 °F 12.4 °F 74% 29.91 in 10.0 mi NNW 6.9 mph - N/A   Clear
10:55 PM 19.2 °F 12.5 °F 11.3 °F 71% 29.91 in 10.0 mi NW 4.6 mph - N/A   Clear
11:15 PM 18.9 °F - 11.3 °F 72% 29.91 in 10.0 mi Calm Calm - N/A   Clear
11:35 PM 18.5 °F 13.3 °F 11.3 °F 73% 29.92 in 10.0 mi West 3.5 mph - N/A   Clear
11:55 PM 18.5 °F 11.7 °F 11.3 °F 73% 29.92 in 10.0 mi West 4.6 mph - N/A   Clear